sat.trackr.live / text

‹ back to catalog

QIANFAN-129

NORAD 69075 · 2026-104C

PAYLOAD ACTIVE UNKNOWN

§ Identity

Operator
Country
PRC
Launch date
2026-05-12
Launch site
TAISC
Launch vehicle
Mass (kg)
RCS (m²)

External: N2YO · Heavens-Above · Gunter

§ Orbital elements

Epoch: 2026-09-20T04:40:29.993376Z

Period
106.59 min
Inclination
88.9903°
Eccentricity
0.0002342
Mean motion
13.51023673 rev/d
Perigee alt
1,066.8 km
Apogee alt
1,070.2 km
Semi-major
7,446.6 km
B*
8.8706e-5
RAAN
331.7434°
Arg perigee
107.8570°
Mean anomaly
252.2837°
Rev number
1,800

§ Raw data

QIANFAN-1291 69075U 26104C   26263.19479159  .00000069  00000+0  88706-4 0  99912 69075  88.9903 331.7434 0002342 107.8570 252.2837 13.51023673 18009

JSON: /api/v1/satellites/69075 · /tle

For live sub-satellite position, see the globe view (requires WebGL).

§ Visibility from observer

Set your observer location to see the next 7 days of passes ≥ 10°. The values pass through the URL so the page stays shareable.

No JS? Fill the form by hand. The geolocation button needs JavaScript.